Tracking 18852 objects as of 24-Nov-2017
HD Live streaming from Space Station
objects crossing your sky now

FENGYUN 1C DEB

Track FENGYUN 1C DEB now!
10-day predictions


NORAD ID: 32216
Int'l Code: 1999-025CVN
Perigee: 749.1 km
Apogee: 828.1 km
Inclination: 99.6 °
Period: 100.5 minutes
Semi major axis: 7159 km
RCS: 0.0127 m2 (small)
Launch date: May 10, 1999
Source: People's Republic of China (PRC)
Launch site: Taiyaun Space Center, China (TSC)

Note: This is SATELLITE DEBRIS
aabbcc
Your satellite tracking list
Your tracking list is empty




NASA's NSSDC Master Catalog

Two Line Element Set (TLE):
1 32216U 99025CVN 17327.87319332  .00001230  00000-0  46015-3 0  9990
2 32216  99.5675 347.9985 0055131 218.9893 140.7307 14.33074096536729
Source of the keplerian elements: AFSPC